Location: Obersdorf
(47.4079°N, 10.2781°E)
Time: 02:50:46
(UTC+01:00)

XW-2C - Pass Details

Date: 07 December 2021
Orbit: 503 x 523 km, 97.5° (Epoch: 16 January)

Event Time Altitude Azimuth Distance (km) Brightness Sun altitude
Rises 17:49:18 0° 182° (S) 2,615 ? -13.1°
Reaches altitude 10° 17:51:27 10° 189° (S) 1,738 ? -13.4°
Maximum altitude 17:55:01 42° 261° (W) 750 ? -14.0°
Drops below altitude 10° 17:58:39 10° 334° (NNW) 1,764 ? -14.6°
Sets 18:00:52 0° 341° (NNW) 2,661 ? -14.9°
